FW8253 Weather Reports


time (UTC)temp
C
wind
direction
speed
KPH
gust
KPH
rain 1hr
cm
rain 24hr
cm
rain mn
cm
humidity
%
barometer
mb
20260502232749 13 234 0.0 0.0 0.00 0.05 0.05 98 1014.2
20260502232246 13 233 0.0 0.0 0.00 0.05 0.05 97 1014.3
20260502231742 13 233 0.0 0.0 0.00 0.05 0.05 97 1014.2
20260502231240 13 236 0.0 0.0 0.00 0.05 0.05 97 1014.0
20260502230739 14 236 0.0 0.0 0.00 0.05 0.05 96 1014.0
20260502230237 14 236 0.0 0.0 0.00 0.05 0.05 95 1014.2
20260502225733 14 205 0.0 0.0 0.00 0.05 0.05 93 1014.0
20260502225230 14 231 0.0 0.0 0.00 0.05 0.05 94 1014.1
20260502224726 14 244 0.0 0.0 0.00 0.05 0.05 94 1014.2
20260502224223 14 246 0.0 0.0 0.00 0.05 0.05 95 1014.2
20260502223720 14 264 0.0 0.0 0.00 0.05 0.05 92 1014.1
20260502223218 14 242 0.0 0.0 0.00 0.05 0.05 93 1013.8
20260502222716 14 189 0.0 0.0 0.00 0.05 0.05 93 1014.3
20260502222212 14 253 0.0 0.0 0.00 0.05 0.05 94 1014.1
20260502221708 15 235 0.0 0.0 0.00 0.05 0.05 94 1013.9
20260502221205 14 213 0.0 0.0 0.00 0.05 0.05 93 1013.7
20260502220701 14 71 0.0 0.0 0.00 0.05 0.05 91 1013.9
20260502220157 15 246 0.0 0.0 0.00 0.05 0.05 92 1013.7
20260502215654 14 213 0.0 0.0 0.00 0.05 0.05 92 1013.7
20260502215151 14 184 0.0 0.0 0.00 0.05 0.05 91 1013.5
20260502214649 15 33 0.0 0.0 0.00 0.05 0.05 91 1013.5
20260502214146 15 231 0.0 0.0 0.00 0.05 0.05 94 1013.6
20260502213643 14 243 0.0 0.0 0.00 0.05 0.05 93 1013.6
20260502213140 15 296 0.0 0.0 0.00 0.05 0.05 93 1013.7
20260502212639 14 267 0.0 0.0 0.00 0.05 0.05 96 1013.6
20260502212137 13 214 0.0 0.0 0.00 0.05 0.05 97 1013.8
20260502211632 13 214 0.0 0.0 0.00 0.05 0.05 98 1013.8
20260502211129 13 160 0.0 0.0 0.00 0.05 0.05 98 1013.8
20260502210627 13 241 0.0 0.0 0.00 0.05 0.05 98 1013.7
20260502210124 13 266 0.0 0.0 0.00 0.05 0.05 98 1013.5
20260502205620 13 223 0.0 0.0 0.00 0.05 0.05 99 1013.6
20260502205117 13 226 0.0 0.0 0.00 0.05 0.05 99 1013.4
20260502204614 13 195 0.0 0.0 0.00 0.05 0.05 99 1013.4
20260502204112 12 110 0.0 0.0 0.00 0.05 0.05 99 1013.3
20260502203609 13 12 0.0 0.0 0.00 0.05 0.05 99 1013.4
20260502203106 12 167 0.0 0.0 0.00 0.05 0.05 99 1013.3
20260502202601 13 250 0.0 0.0 0.00 0.05 0.05 99 1013.4
20260502202100 13 229 0.0 0.0 0.00 0.05 0.05 99 1013.7
20260502201555 13 268 0.0 0.0 0.00 0.05 0.05 98 1013.4
20260502201052 13 210 0.0 0.0 0.00 0.05 0.05 98 1013.5
20260502200548 13 150 0.0 0.0 0.00 0.05 0.05 97 1013.6
20260502200046 15 224 0.0 0.0 0.00 0.05 0.05 98 1013.5
20260502195544 15 216 0.0 0.0 0.00 0.05 0.05 98 1013.4
20260502195039 15 213 0.0 0.0 0.00 0.05 0.05 98 1013.3
20260502194536 15 220 0.0 0.0 0.00 0.05 0.05 98 1013.3
20260502194032 15 213 0.0 0.0 0.00 0.05 0.05 97 1013.4
20260502193530 15 244 0.0 0.0 0.00 0.05 0.05 98 1013.4
20260502193026 15 204 0.0 0.0 0.00 0.05 0.05 97 1013.2
20260502192522 15 209 0.0 0.0 0.00 0.05 0.05 97 1013.2
20260502192020 15 201 0.0 0.0 0.00 0.05 0.05 96 1013.3
20260502191516 15 203 0.0 0.0 0.00 0.05 0.05 96 1013.5
20260502191014 15 220 0.0 0.0 0.00 0.05 0.05 96 1013.3
20260502190512 16 220 0.0 0.0 0.00 0.05 0.05 95 1013.3
20260502190008 16 79 0.0 0.0 0.00 0.05 0.05 94 1013.4
20260502185503 16 262 0.0 0.0 0.00 0.05 0.05 94 1013.1
20260502185000 16 210 0.0 0.0 0.00 0.05 0.05 96 1013.1
20260502184455 16 231 0.0 0.0 0.00 0.05 0.05 98 1013.4
20260502183953 16 237 0.0 0.0 0.00 0.05 0.05 98 1013.3
20260502183449 16 229 0.0 0.0 0.00 0.05 0.05 98 1013.3
20260502182944 16 243 0.0 0.0 0.00 0.05 0.05 98 1013.4
20260502182440 16 244 0.0 0.0 0.00 0.05 0.05 98 1013.4
20260502181936 16 241 0.0 0.0 0.00 0.05 0.05 99 1013.5
20260502181434 16 231 0.0 0.0 0.00 0.05 0.05 99 1013.4
20260502180933 16 213 0.0 0.0 0.00 0.05 0.05 99 1013.4
20260502180430 16 249 0.0 0.0 0.00 0.05 0.05 99 1013.1
20260502170348 15 77 0.0 0.0 0.00 0.05 0.05 99 1013.2
20260502164336 15 206 0.0 0.0 0.00 0.05 0.05 99 1013.5
20260502163831 15 215 0.0 0.0 0.00 0.05 0.05 99 1013.8
20260502163328 15 215 0.0 0.0 0.00 0.05 0.05 99 1013.9
20260502162826 15 247 0.0 0.0 0.00 0.05 0.05 99 1014.3
20260502162322 15 234 0.0 0.0 0.00 0.05 0.05 99 1013.9
20260502161819 15 230 0.0 0.0 0.00 0.05 0.05 99 1014.1
20260502161315 15 225 0.0 0.0 0.00 0.05 0.05 99 1014.1
20260502160813 15 204 0.0 0.0 0.00 0.05 0.05 99 1013.8
20260502160312 15 233 0.0 0.0 0.00 0.05 0.05 99 1014.1
20260502152247 15 235 0.0 0.0 0.00 0.05 0.05 99 1014.0
20260502151744 15 215 0.0 0.0 0.00 0.05 0.05 99 1014.1
20260502151241 15 226 0.0 0.0 0.00 0.05 0.05 99 1014.2
20260502150739 15 255 0.0 0.0 0.00 0.05 0.05 99 1014.0
20260502150236 14 232 0.0 0.0 0.00 0.05 0.05 99 1013.8
20260502130624 14 223 0.0 0.0 0.00 0.05 0.05 99 1013.3
20260502130122 15 207 0.0 0.0 0.00 0.05 0.05 99 1013.2
20260502123607 14 207 0.0 0.0 0.00 0.05 0.05 99 1013.5
20260502123103 14 219 0.0 0.0 0.00 0.05 0.05 99 1013.5
20260502122600 14 215 0.0 0.0 0.00 0.05 0.05 99 1013.8
20260502122057 14 260 0.0 0.0 0.00 0.05 0.05 99 1014.0
20260502121555 14 239 0.0 0.0 0.00 0.05 0.05 99 1014.0
20260502121052 14 224 0.0 0.0 0.00 0.05 0.05 99 1014.2
20260502120548 14 231 0.0 0.0 0.00 0.05 0.05 99 1014.0
20260502115544 14 242 0.0 0.0 0.00 0.05 0.05 99 1013.8
20260502115039 14 227 0.0 0.0 0.00 0.05 0.05 99 1013.5
20260502114536 14 227 0.0 0.0 0.00 0.05 0.05 99 1013.0
20260502114033 14 227 0.0 0.0 0.00 0.05 0.05 99 1012.7
20260502113531 14 226 0.0 0.0 0.00 0.05 0.05 99 1012.8
20260502113029 14 226 0.0 0.0 0.00 0.05 0.05 99 1012.7
20260502112526 14 226 0.0 0.0 0.00 0.05 0.05 99 1012.7
20260502112024 14 228 0.0 0.0 0.00 0.05 0.05 99 1012.8
20260502111521 14 228 0.0 0.0 0.00 0.05 0.05 99 1012.7
20260502111018 14 228 0.0 0.0 0.00 0.05 0.05 99 1012.7
20260502110515 14 214 0.0 0.0 0.00 0.05 0.05 99 1012.9
20260502110013 14 214 0.0 0.0 0.00 0.05 0.05 99 1012.8
20260502105510 14 217 0.0 0.0 0.00 0.05 0.05 99 1012.8
20260502105008 14 217 0.0 0.0 0.00 0.05 0.05 99 1012.6
20260502104505 14 217 0.0 0.0 0.00 0.05 0.05 99 1012.4
20260502104002 14 211 0.0 0.0 0.00 0.05 0.05 99 1012.5
20260502103459 14 212 0.0 0.0 0.00 0.05 0.05 99 1012.5
20260502102956 14 212 0.0 0.0 0.00 0.05 0.05 99 1012.5
20260502102454 15 211 0.0 0.0 0.00 0.05 0.05 99 1012.3
20260502101950 15 212 0.0 0.0 0.00 0.05 0.05 99 1012.5
20260502101449 15 212 0.0 0.0 0.00 0.05 0.05 99 1012.5
20260502100947 14 212 0.0 0.0 0.00 0.05 0.05 99 1012.5
20260502100445 14 212 0.0 0.0 0.00 0.05 0.05 99 1012.7
20260502091420 15 212 0.0 0.0 0.00 0.05 0.05 99 1012.9
20260502090916 15 211 0.0 0.0 0.00 0.05 0.05 99 1013.0
20260502090414 15 234 0.0 0.0 0.00 0.05 0.05 99 1013.1
20260502071308 16 215 0.0 0.0 0.00 0.03 0.03 99 1013.1
20260502070807 16 216 0.0 0.0 0.00 0.03 0.03 99 1013.2
20260502070304 16 216 0.0 0.0 0.00 0.03 0.03 99 1013.3
20260502065803 16 216 0.0 0.0 0.00 0.03 0.03 99 1013.2
20260502065300 16 217 0.0 0.0 0.00 0.03 0.03 99 1013.3
20260502064758 15 217 0.0 0.0 0.00 0.03 0.03 99 1013.3
20260502064256 16 216 0.0 0.0 0.00 0.03 0.03 99 1013.7
20260502063753 16 216 0.0 0.0 0.00 0.03 0.03 99 1013.4
20260502063251 16 216 0.0 0.0 0.00 0.03 0.03 99 1013.6
20260502062748 16 216 0.0 0.0 0.00 0.03 0.03 99 1013.6
20260502062245 16 216 0.0 0.0 0.00 0.03 0.03 99 1013.8
20260502061744 16 216 0.0 0.0 0.00 0.03 0.03 99 1013.9
20260502061241 16 216 0.0 0.0 0.00 0.03 0.03 99 1013.9
20260502060736 16 217 0.0 0.0 0.00 0.03 0.03 99 1013.7
20260502060232 16 217 0.0 0.0 0.00 0.03 0.03 99 1013.9
20260502055731 16 217 0.0 0.0 0.00 0.03 0.03 99 1013.9
20260502055228 16 217 0.0 0.0 0.00 0.03 0.03 99 1013.7
20260502054727 16 217 0.0 0.0 0.00 0.03 0.03 99 1013.5
20260502054224 16 217 0.0 0.0 0.00 0.03 0.03 99 1013.6
20260502053721 16 217 0.0 0.0 0.00 0.03 0.03 99 1013.8
20260502053218 16 217 0.0 0.0 0.00 0.03 0.03 99 1013.8
20260502052716 16 217 0.0 0.0 0.00 0.03 0.03 99 1013.9
20260502052214 16 216 0.0 0.0 0.00 0.03 0.03 99 1014.1
20260502051712 16 216 0.0 0.0 0.00 0.03 0.03 99 1014.4
20260502051210 16 216 0.0 0.0 0.00 0.03 0.03 99 1014.2
20260502050706 16 216 0.0 0.0 0.00 0.03 0.03 99 1014.4
20260502050202 16 216 0.0 0.0 0.13 0.03 0.03 99 1014.3
20260502045659 16 216 0.0 0.0 0.13 0.03 0.03 99 1014.6
20260502045156 16 216 0.0 0.0 0.00 0.00 0.00 99 1014.4
20260502044653 16 216 0.0 0.0 0.00 0.00 0.00 99 1014.4
20260502044149 16 216 0.0 0.0 0.00 0.00 0.00 99 1014.4
20260502043647 16 216 0.0 0.0 0.00 0.00 0.00 99 1014.3
20260502043144 16 216 0.0 0.0 0.00 0.00 0.00 99 1014.1
20260502042644 16 216 0.0 0.0 0.00 0.00 0.00 99 1014.1
20260502042141 16 216 0.0 0.0 0.00 0.00 0.00 99 1014.1
20260502041639 16 216 0.0 0.0 0.00 0.00 0.00 99 1014.0
20260502041135 16 216 0.0 0.0 0.00 0.00 0.00 99 1014.0
20260502040632 16 216 0.0 0.0 0.00 0.00 0.00 99 1014.0
20260502040130 16 216 0.0 0.0 0.00 0.00 0.00 99 1014.1
20260502035625 16 216 0.0 0.0 0.00 0.00 0.00 99 1013.9
20260502035123 16 216 0.0 0.0 0.00 0.00 0.00 98 1013.9
20260502034621 16 216 0.0 0.0 0.00 0.00 0.00 98 1013.9
20260502034119 16 216 0.0 0.0 0.00 0.00 0.00 98 1013.8
20260502033616 16 216 0.0 0.0 0.00 0.00 0.00 98 1013.9
20260502033114 16 216 0.0 0.0 0.00 0.00 0.00 98 1013.7
20260502032609 16 216 0.0 0.0 0.00 0.00 0.00 98 1013.9
20260502032106 16 216 0.0 0.0 0.00 0.00 0.00 98 1014.1
20260502031604 16 216 0.0 0.0 0.00 0.00 0.00 98 1014.1
20260502031101 16 216 0.0 0.0 0.00 0.00 0.00 98 1014.0
20260502030600 16 216 0.0 0.0 0.00 0.00 0.00 98 1013.9
20260502030057 16 216 0.0 0.0 0.00 0.00 0.00 98 1014.2
20260502025555 16 216 0.0 0.0 0.00 0.00 0.00 97 1014.0
20260502025053 16 216 0.0 0.0 0.00 0.00 0.00 97 1014.0
20260502024550 16 216 0.0 0.0 0.00 0.00 0.00 97 1014.0
20260502024048 16 216 0.0 0.0 0.00 0.00 0.00 97 1014.3
20260502023545 16 216 0.0 0.0 0.00 0.00 0.00 97 1014.0
20260502023043 16 216 0.0 0.0 0.00 0.00 0.00 96 1014.0
20260502022539 16 216 0.0 0.0 0.00 0.00 0.00 96 1014.0
20260502022037 17 216 0.0 0.0 0.00 0.00 0.00 96 1014.0
20260502021534 17 216 0.0 0.0 0.00 0.00 0.00 96 1014.0
20260502021031 17 216 0.0 0.0 0.00 0.00 0.00 96 1014.2
20260502020528 17 216 0.0 0.0 0.00 0.00 0.00 96 1014.0
20260502020025 17 216 0.0 0.0 0.00 0.00 0.00 96 1014.0
20260502015523 17 216 0.0 0.0 0.00 0.00 0.00 95 1014.1
20260502015019 17 216 0.0 0.0 0.00 0.00 0.00 95 1013.9
20260502014516 17 216 0.0 0.0 0.00 0.00 0.00 95 1014.0
20260502014013 17 216 0.0 0.0 0.00 0.00 0.00 94 1014.0
20260502013509 17 216 0.0 0.0 0.00 0.00 0.00 94 1013.9
20260502013005 17 216 0.0 0.0 0.00 0.00 0.00 94 1013.9
20260502012503 17 216 0.0 0.0 0.00 0.00 0.00 94 1013.8
20260502012001 17 216 0.0 0.0 0.00 0.00 0.00 93 1014.0
20260502011456 17 216 0.0 0.0 0.00 0.00 0.00 93 1013.9
20260502010953 17 216 0.0 0.0 0.00 0.00 0.00 93 1014.0
20260502010450 17 216 0.0 0.0 0.00 0.00 0.00 92 1013.9
20260502005946 17 216 0.0 0.0 0.00 0.00 0.00 92 1013.9
20260502005444 17 216 0.0 0.0 0.00 0.00 0.00 92 1013.5
20260502004942 17 216 0.0 0.0 0.00 0.00 0.00 92 1013.8
20260502004438 18 216 0.0 0.0 0.00 0.00 0.00 92 1013.6
20260502003935 18 216 0.0 0.0 0.00 0.00 0.00 91 1013.9
20260502003432 18 210 0.0 0.0 0.00 0.00 0.00 91 1013.8
20260502002928 18 210 0.0 0.0 0.00 0.00 0.00 90 1013.6
20260502002426 18 210 0.0 0.0 0.00 0.00 0.00 90 1013.6
20260502001923 18 210 0.0 0.0 0.00 0.00 0.00 90 1013.4
20260502001421 18 209 0.0 0.0 0.00 0.00 0.00 90 1013.3
20260502000918 18 220 0.0 0.0 0.00 0.00 0.00 89 1013.2
20260502000417 18 219 0.0 0.0 0.00 0.00 0.00 88 1013.0
20260501235912 18 218 0.0 0.0 0.00 0.00 0.00 88 1012.8
20260501235408 18 231 0.0 0.0 0.00 0.00 0.00 88 1013.0
20260501234903 18 230 0.0 0.0 0.00 0.00 0.00 87 1012.8
20260501234400 18 230 0.0 0.0 0.00 0.00 0.00 87 1012.8
20260501233859 20 170 0.0 0.0 0.00 0.00 0.00 87 1012.7
20260501233356 20 170 0.0 0.0 0.00 0.00 0.00 84 1012.5